Time,TemperatureF,DewpointF,PressureIn,WindDirection,WindDirectionDegrees,WindSpeedMPH,WindSpeedGustMPH,Humidity,HourlyPrecipIn,Conditions,Clouds,dailyrainin,SolarRadiationWatts/m^2,SoftwareType,DateUTC
2013-09-03 00:22:00,70.0,57.0,30.00,West,275,2.0,4.0,64,-99.99,,,-99.99,0.000000,,2013-09-03 07:22:00,
2013-09-03 00:32:00,70.0,57.0,30.00,West,275,2.0,4.0,64,-99.99,,,-99.99,0.000000,,2013-09-03 07:32:00,
2013-09-03 00:40:00,69.0,57.0,30.01,South,179,0.0,1.0,66,-99.99,,,-99.99,0.000000,,2013-09-03 07:40:00,
2013-09-03 01:22:00,69.0,57.0,30.01,South,179,0.0,1.0,66,-99.99,,,-99.99,0.000000,,2013-09-03 08:22:00,
2013-09-03 01:32:00,69.0,57.0,30.01,South,179,0.0,1.0,66,-99.99,,,-99.99,0.000000,,2013-09-03 08:32:00,
2013-09-03 01:40:00,69.0,57.0,30.00,East,82,2.0,3.0,66,-99.99,,,-99.99,0.000000,,2013-09-03 08:40:00,
2013-09-03 02:21:00,69.0,57.0,30.00,East,82,2.0,3.0,66,-99.99,,,-99.99,0.000000,,2013-09-03 09:21:00,
2013-09-03 02:33:00,69.0,57.0,30.00,East,82,2.0,3.0,66,-99.99,,,-99.99,0.000000,,2013-09-03 09:33:00,
2013-09-03 02:40:00,68.0,57.0,30.00,WNW,288,3.0,4.0,69,-99.99,,,-99.99,0.000000,,2013-09-03 09:40:00,
2013-09-03 03:23:00,68.0,57.0,30.00,WNW,288,3.0,4.0,69,-99.99,,,-99.99,0.000000,,2013-09-03 10:23:00,
2013-09-03 03:33:00,68.0,57.0,30.00,WNW,288,3.0,4.0,69,-99.99,,,-99.99,0.000000,,2013-09-03 10:33:00,
2013-09-03 07:40:00,68.0,55.0,30.03,SSE,149,1.0,2.0,64,-99.99,,,-99.99,174.000000,,2013-09-03 14:40:00,
2013-09-03 08:40:00,70.0,55.0,30.04,SSE,164,3.0,5.0,58,-99.99,,,-99.99,399.000000,,2013-09-03 15:40:00,
2013-09-03 09:24:00,70.0,55.0,30.04,SSE,164,3.0,5.0,58,-99.99,,,-99.99,399.000000,,2013-09-03 16:24:00,
2013-09-03 09:33:00,70.0,55.0,30.04,SSE,164,3.0,5.0,58,-99.99,,,-99.99,399.000000,,2013-09-03 16:33:00,
2013-09-03 09:40:00,71.0,55.0,30.06,SSW,207,3.0,6.0,56,-99.99,,,-99.99,610.000000,,2013-09-03 16:40:00,
2013-09-03 10:23:00,71.0,55.0,30.06,SSW,207,3.0,6.0,56,-99.99,,,-99.99,610.000000,,2013-09-03 17:23:00,
2013-09-03 10:34:00,71.0,55.0,30.06,SSW,207,3.0,6.0,56,-99.99,,,-99.99,610.000000,,2013-09-03 17:34:00,
2013-09-03 10:40:00,74.0,54.0,30.07,South,190,3.0,7.0,50,-99.99,,,-99.99,774.000000,,2013-09-03 17:40:00,
2013-09-03 11:22:00,74.0,54.0,30.07,South,190,3.0,7.0,50,-99.99,,,-99.99,774.000000,,2013-09-03 18:22:00,
2013-09-03 11:32:00,74.0,54.0,30.07,South,190,3.0,7.0,50,-99.99,,,-99.99,774.000000,,2013-09-03 18:32:00,
2013-09-03 11:40:00,73.0,47.0,30.08,West,266,6.0,9.0,40,-99.99,,,-99.99,892.000000,,2013-09-03 18:40:00,
2013-09-03 12:22:00,73.0,47.0,30.08,West,266,6.0,9.0,40,-99.99,,,-99.99,892.000000,,2013-09-03 19:22:00,
2013-09-03 12:32:00,73.0,47.0,30.08,West,266,6.0,9.0,40,-99.99,,,-99.99,892.000000,,2013-09-03 19:32:00,
2013-09-03 12:40:00,74.0,38.0,30.06,West,264,5.0,9.0,27,-99.99,,,-99.99,945.000000,,2013-09-03 19:40:00,
2013-09-03 13:22:00,74.0,38.0,30.06,West,264,5.0,9.0,27,-99.99,,,-99.99,945.000000,,2013-09-03 20:22:00,
2013-09-03 13:32:00,74.0,38.0,30.06,West,264,5.0,9.0,27,-99.99,,,-99.99,945.000000,,2013-09-03 20:32:00,
2013-09-03 14:40:00,77.0,43.0,30.05,West,261,5.0,9.0,30,-99.99,,,-99.99,875.000000,,2013-09-03 21:40:00,
2013-09-03 15:23:00,77.0,43.0,30.05,West,261,5.0,9.0,30,-99.99,,,-99.99,875.000000,,2013-09-03 22:23:00,
2013-09-03 15:34:00,77.0,43.0,30.05,West,261,5.0,9.0,30,-99.99,,,-99.99,875.000000,,2013-09-03 22:34:00,
2013-09-03 21:40:00,72.0,36.0,30.02,NNW,343,3.0,4.0,27,-99.99,,,-99.99,0.000000,,2013-09-04 04:40:00,